This is the latest recevied weather packets stored in our database for station/object K6POO-1. If no packets are shown the sender has not sent any weather packets the latest 10 day(s).
| Time | Temp. | Humidity | Pressure | Rain* | Wind** | Luminosity | Snow |
|---|---|---|---|---|---|---|---|
| 1788385249 | 20° C | 67% | 1017.8 hPa | 0 mm | - | 744 W/m² | - |
| 1788384945 | 20.56° C | 68% | 1017.8 hPa | 0 mm | - | 769 W/m² | - |
| 1788384644 | 20.56° C | 68% | 1017.9 hPa | 0 mm | - | 790 W/m² | - |
| 1788384340 | 20° C | 69% | 1017.7 hPa | 0 mm | - | 795 W/m² | - |
| 1788384036 | 20.56° C | 70% | 1017.8 hPa | 0 mm | - | 806 W/m² | - |
| 1788383732 | 20.56° C | 68% | 1018 hPa | 0 mm | - | 834 W/m² | - |
| 1788383426 | 20° C | 69% | 1017.7 hPa | 0 mm | - | 838 W/m² | - |
| 1788383121 | 20° C | 71% | 1017.7 hPa | 0 mm | - | 845 W/m² | - |
| 1788382820 | 19.44° C | 73% | 1017.6 hPa | 0 mm | - | 854 W/m² | - |
| 1788382514 | 20° C | 73% | 1017.6 hPa | 0 mm | - | 861 W/m² | - |
| 1788382210 | 20° C | 72% | 1017.9 hPa | 0 mm | - | 363 W/m² | - |
| 1788381909 | 20° C | 73% | 1017.8 hPa | 0 mm | - | 612 W/m² | - |
| 1788381605 | 20° C | 72% | 1017.9 hPa | 0 mm | - | 891 W/m² | - |
| 1788381300 | 20° C | 71% | 1017.9 hPa | 0 mm | - | 883 W/m² | - |
| 1788380998 | 20° C | 71% | 1017.8 hPa | 0 mm | - | 892 W/m² | - |
| 1788380695 | 20° C | 71% | 1017.9 hPa | 0 mm | - | 914 W/m² | - |
| 1788380392 | 20° C | 73% | 1017.8 hPa | 0 mm | - | 1041 W/m² | - |
| 1788380087 | 20° C | 73% | 1017.8 hPa | 0 mm | - | 778 W/m² | - |
| 1788379786 | 20° C | 73% | 1017.8 hPa | 0 mm | - | 429 W/m² | - |
| 1788379481 | 20° C | 73% | 1017.9 hPa | 0 mm | - | 380 W/m² | - |
| 1788379177 | 19.44° C | 74% | 1018 hPa | 0 mm | - | 579 W/m² | - |
| 1788378872 | 20° C | 75% | 1017.8 hPa | 0 mm | - | 890 W/m² | - |
| 1788378571 | 20° C | 75% | 1018 hPa | 0 mm | - | 548 W/m² | - |
| 1788378266 | 20° C | 76% | 1018.1 hPa | 0 mm | - | 1013 W/m² | - |
| 1788377961 | 18.89° C | 78% | 1018.1 hPa | 0 mm | - | 1205 W/m² | - |
* Rain latest hour (hover to see other rain measurements)
** Current wind speed in m/s (hover to see current wind gust speed)